This is the latest recevied weather packets stored in our database for station/object K1JO. If no packets are shown the sender has not sent any weather packets the latest 10 day(s).
| Time | Temp. | Humidity | Pressure | Rain* | Wind** | Luminosity | Snow |
|---|---|---|---|---|---|---|---|
| 1777996467 | 20° C | 60% | 1003.2 hPa | 0 mm | - | 745 W/m² | - |
| 1777996164 | 20° C | 60% | 1003.1 hPa | 0 mm | - | 740 W/m² | - |
| 1777995860 | 20.56° C | 58% | 1003.1 hPa | 0 mm | - | 730 W/m² | - |
| 1777995556 | 20.56° C | 57% | 1003 hPa | 0 mm | - | 735 W/m² | - |
| 1777995253 | 20.56° C | 57% | 1003 hPa | 0 mm | - | 722 W/m² | - |
| 1777994950 | 20.56° C | 60% | 1003.2 hPa | 0 mm | - | 730 W/m² | - |
| 1777994648 | 20° C | 58% | 1003.1 hPa | 0 mm | - | 723 W/m² | - |
| 1777994347 | 20.56° C | 58% | 1003.1 hPa | 0 mm | - | 720 W/m² | - |
| 1777994044 | 20.56° C | 59% | 1003.1 hPa | 0 mm | - | 719 W/m² | - |
| 1777993741 | 20.56° C | 56% | 1003 hPa | 0 mm | - | 712 W/m² | - |
| 1777993433 | 20° C | 56% | 1003.1 hPa | 0 mm | - | 705 W/m² | - |
| 1777993132 | 20° C | 56% | 1003 hPa | 0 mm | - | 701 W/m² | - |
| 1777992831 | 20° C | 56% | 1003.3 hPa | 0 mm | - | 693 W/m² | - |
| 1777992528 | 20° C | 57% | 1003.2 hPa | 0 mm | - | 696 W/m² | - |
| 1777992222 | 20° C | 57% | 1003.2 hPa | 0 mm | - | 690 W/m² | - |
| 1777991918 | 20° C | 58% | 1003.2 hPa | 0 mm | - | 684 W/m² | - |
| 1777991615 | 19.44° C | 57% | 1003.2 hPa | 0 mm | - | 676 W/m² | - |
| 1777991312 | 19.44° C | 55% | 1003.1 hPa | 0 mm | - | 676 W/m² | - |
| 1777991009 | 20° C | 55% | 1003.1 hPa | 0 mm | - | 667 W/m² | - |
| 1777990706 | 20° C | 56% | 1003.2 hPa | 0 mm | - | 656 W/m² | - |
| 1777990404 | 20° C | 57% | 1003.3 hPa | 0 mm | - | 648 W/m² | - |
| 1777989796 | 19.44° C | 56% | 1003.3 hPa | 0 mm | - | 617 W/m² | - |
| 1777989494 | 19.44° C | 57% | 1003.4 hPa | 0 mm | - | 630 W/m² | - |
| 1777989189 | 18.89° C | 57% | 1003.4 hPa | 0 mm | - | 616 W/m² | - |
| 1777988886 | 18.89° C | 57% | 1003.7 hPa | 0 mm | - | 447 W/m² | - |
* Rain latest hour (hover to see other rain measurements)
** Current wind speed in m/s (hover to see current wind gust speed)